User: anonymous   Login
Location: Caltech
(34.1382°N, 118.1253°W)
Time: 05:49:29
(UTC-07:00)
Language:

SL-16 R/B - Orbit

View from above orbital plane
View from above orbital plane
View from above satellite
View from above satellite

Ground track
Ground track

The orbit data is extracted from the following two-line orbital elements,

1 28353U 04021B   17118.70630559 +.00000316 +00000-0 +19040-3 0  9998
2 28353 071.0010 182.2356 0007131 272.5226 087.5079 14.14194139665153
Epoch (UTC): 28 April 2017 16:57:04
Eccentricity: 0.0007131
inclination: 71.0010°
perigee height: 840 km
apogee height: 850 km
right ascension of ascending node: 182.2356°
argument of perigee: 272.5226°
revolutions per day: 14.14194139
mean anomaly at epoch: 87.5079°
orbit number at epoch: 66515

The dashed part of the orbit path shows where the satellite is in the earth's shadow,  

DLR